Location: Les Thiberg�res
(47.8554°N, 1.0978°W)
Time: 02:50:01
(UTC+00:00)

USA 116 - Pass Details

Date: 17 February 2020
Orbit: 405 x 834 km, 97.9° (Epoch: 18 November)

Event Time Altitude Azimuth Distance (km) Brightness Sun altitude
Rises 05:43:03 0° 170° (S) 2,428 7.2 -14.9°
Reaches altitude 10° 05:45:07 10° 173° (S) 1,525 6.1 -14.6°
Maximum altitude 05:48:19 68° 257° (WSW) 452 3.0 -14.0°
Drops below altitude 10° 05:51:25 10° 341° (NNW) 1,478 5.7 -13.5°
Sets 05:53:23 0° 344° (NNW) 2,343 6.7 -13.2°
